FW7711 Weather Reports


time (UTC)temp
F
wind
direction
speed
knots
gust
knots
rain 1hr
in
rain 24hr
in
rain mn
in
humidity
%
barometer
mb
20260504174600 63 0.0 0.0 0.00 0.00 0.00 40 999.7
20260504173103 64 0.0 0.0 0.00 0.00 0.00 42 999.6
20260504171601 64 0.0 0.0 0.00 0.00 0.00 42 999.7
20260504160104 64 0.0 0.0 0.00 0.00 0.00 42 999.4
20260504150103 63 0.0 0.0 0.00 0.00 0.00 43 999.1
20260504120130 58 0.0 0.0 0.00 0.00 0.00 50 997.2
20260504081610 53 0.0 0.0 0.00 0.00 0.00 54 998.9
20260504044557 49 0.0 0.0 0.00 0.00 0.00 62 1002.7
20260504043114 50 0.0 0.0 0.00 0.00 0.00 60 1003.1
20260504041558 51 0.0 0.0 0.00 0.00 0.00 59 1003.3
20260504040058 51 0.0 0.0 0.00 0.00 0.00 58 1003.6
20260504034600 52 0.0 0.0 0.00 0.00 0.00 57 1004.0
20260504033121 53 0.0 0.0 0.00 0.00 0.00 56 1004.2
20260504031600 54 0.0 0.0 0.00 0.00 0.00 52 1004.4
20260504030115 55 0.0 0.0 0.00 0.00 0.00 50 1004.5
20260504024600 57 0.0 0.0 0.00 0.00 0.00 48 1004.5
20260504023058 58 0.0 0.0 0.00 0.00 0.00 47 1004.6
20260504021559 60 0.0 0.0 0.00 0.00 0.00 44 1004.6
20260504020107 61 0.0 0.0 0.00 0.00 0.00 43 1004.5
20260504014607 63 0.0 0.0 0.00 0.00 0.00 39 1004.6
20260504013100 64 0.0 0.0 0.00 0.00 0.00 37 1004.7
20260504011559 65 0.0 0.0 0.00 0.00 0.00 32 1004.8
20260504004600 66 0.0 0.0 0.00 0.00 0.00 30 1004.9
20260504003104 67 0.0 0.0 0.00 0.00 0.00 31 1004.7
20260504001602 67 0.0 0.0 0.00 0.00 0.00 28 1004.9
20260504000105 68 0.0 0.0 0.00 0.00 0.00 27 1005.0
20260503234558 70 0.0 0.0 0.00 0.00 0.00 27 1004.8
20260503233102 72 0.0 0.0 0.00 0.00 0.00 26 1005.0
20260503231559 71 0.0 0.0 0.00 0.00 0.00 26 1005.3
20260503230112 71 0.0 0.0 0.00 0.00 0.00 26 1005.4
20260503224604 71 0.0 0.0 0.00 0.00 0.00 29 1005.4
20260503223112 71 0.0 0.0 0.00 0.00 0.00 28 1005.6
20260503221559 71 0.0 0.0 0.00 0.00 0.00 29 1005.5
20260503220059 71 0.0 0.0 0.00 0.00 0.00 28 1005.6
20260503214601 71 0.0 0.0 0.00 0.00 0.00 31 1005.6
20260503213057 71 0.0 0.0 0.00 0.00 0.00 30 1005.8
20260503211557 71 0.0 0.0 0.00 0.00 0.00 31 1005.9
20260503210058 71 0.0 0.0 0.00 0.00 0.00 32 1005.9
20260503204557 71 0.0 0.0 0.00 0.00 0.00 32 1006.1
20260503203058 72 0.0 0.0 0.00 0.00 0.00 31 1006.2
20260503201559 72 0.0 0.0 0.00 0.00 0.00 30 1006.4
20260503200058 73 0.0 0.0 0.00 0.00 0.00 30 1006.6
20260503194621 74 0.0 0.0 0.00 0.00 0.00 29 1006.8
20260503193106 75 0.0 0.0 0.00 0.00 0.00 30 1006.8
20260503191612 74 0.0 0.0 0.00 0.00 0.00 29 1006.8
20260503190059 73 0.0 0.0 0.00 0.00 0.00 32 1006.9
20260503184557 72 0.0 0.0 0.00 0.00 0.00 35 1007.0
20260503183105 73 0.0 0.0 0.00 0.00 0.00 35 1007.2
20260503181608 74 0.0 0.0 0.00 0.00 0.00 36 1007.2
20260503180059 73 0.0 0.0 0.00 0.00 0.00 39 1007.2